Le nostre stazioni meteo in Italia

Pubblicità
Il mio iltempo24.it
Capo Carbonara, Italia (16564): Temperatura & dewpoint: 09.10.2019 12:00:00 - 15.10.2019 12:00:00 (CEST)Capo Carbonara, Italia (16564): velocità del vento: 09.10.2019 12:00:00 - 15.10.2019 12:00:00 (CEST)Capo Carbonara, Italia (16564): direzione del vento: 09.10.2019 12:00:00 - 15.10.2019 12:00:00 (CEST)Capo Carbonara, Italia (16564): reduced air pressure: 09.10.2019 12:00:00 - 15.10.2019 12:00:00 (CEST)Capo Carbonara, Italia (16564): visibility: 09.10.2019 12:00:00 - 15.10.2019 12:00:00 (CEST)
Data & Tempo tt [°C] td [°C] ff [km/h] ff [kn] dd ppp [hPa] vv [km]
15.10.2019 12:00:00 - - - - - - -
15.10.2019 11:00:00 22,6 19,7 13 7 SO 1015,1 4,0
15.10.2019 10:00:00 22,0 19,0 15 8 SO - 6
15.10.2019 09:00:00 22,0 19,0 9 5 NE - 8
15.10.2019 08:00:00 21,8 19,2 0 0 N 1014,4 4,0
15.10.2019 07:00:00 22,0 19,0 13 7 SE - 10
15.10.2019 06:00:00 22,0 19,0 11 6 ESE - 10
15.10.2019 05:00:00 22,0 19,3 8 4 ESE 1015,3 10
15.10.2019 04:00:00 - - - - - - -
15.10.2019 03:00:00 22,0 19,0 16 9 E - 10
15.10.2019 02:00:00 22,0 19,3 21 11 ESE 1016,1 10
15.10.2019 01:00:00 22,0 19,0 22 12 ESE - 10
15.10.2019 00:00:00 22,0 19,0 31 17 ESE - 10
14.10.2019 23:00:00 22,0 19,6 22 12 ESE 1017,0 10
14.10.2019 22:00:00 22,0 20,0 24 13 ESE - 10
14.10.2019 21:00:00 22,0 20,0 28 15 ESE - 10
14.10.2019 20:00:00 22,4 20,3 34 18 E 1017,2 10
14.10.2019 19:00:00 23,0 21,0 29 16 ESE - 10
14.10.2019 18:00:00 24,0 22,0 31 17 ESE - 10
14.10.2019 17:00:00 25,4 22,9 31 17 ESE 1017,2 10
14.10.2019 16:00:00 27,0 23,0 28 15 ESE - 10
14.10.2019 15:00:00 27,0 22,0 29 16 ESE - 10
14.10.2019 14:00:00 26,8 22,2 34 18 ESE 1018,3 10
14.10.2019 13:00:00 25,0 22,0 31 17 ESE - 10
14.10.2019 12:00:00 25,0 22,0 35 19 ESE - 10
14.10.2019 11:00:00 24,6 21,7 31 17 ESE 1019,4 10
14.10.2019 10:00:00 23,0 21,0 24 13 ESE - 10
14.10.2019 09:00:00 23,0 20,0 21 11 ESE - 10
14.10.2019 08:00:00 22,8 20,5 18 10 ESE 1018,9 10
14.10.2019 07:00:00 23,0 21,0 15 8 E - 10
14.10.2019 06:00:00 23,0 21,0 15 8 E - 10
14.10.2019 05:00:00 23,0 20,7 18 10 ESE 1019,0 10
14.10.2019 04:00:00 23,0 21,0 16 9 ESE - 10
14.10.2019 03:00:00 23,0 21,0 16 9 ESE - 10
14.10.2019 02:00:00 23,0 20,7 16 9 E 1020,0 10
14.10.2019 01:00:00 23,0 21,0 16 9 ESE - 10
14.10.2019 00:00:00 23,0 21,0 15 8 E - 10
13.10.2019 23:00:00 22,8 20,7 16 9 E 1020,3 10
13.10.2019 22:00:00 23,0 21,0 22 12 E - 10
13.10.2019 21:00:00 23,0 21,0 21 11 E - 10
13.10.2019 20:00:00 22,8 21,1 24 13 E 1020,1 10
13.10.2019 19:00:00 23,0 21,0 22 12 E - 10
13.10.2019 18:00:00 24,0 22,0 24 13 E - 10
13.10.2019 17:00:00 24,2 22,2 26 14 E 1020,0 10
13.10.2019 16:00:00 25,0 22,0 24 13 ESE - 10
13.10.2019 15:00:00 26,0 22,0 24 13 E - 10
13.10.2019 14:00:00 26,0 21,6 24 13 E 1020,6 10
13.10.2019 13:00:00 25,0 21,0 26 14 E - 10
13.10.2019 12:00:00 24,0 21,0 29 16 E - 10
13.10.2019 11:00:00 23,8 20,7 28 15 E 1021,0 10
13.10.2019 10:00:00 23,0 20,0 31 17 E - 10
13.10.2019 09:00:00 22,0 20,0 28 15 E - 10
13.10.2019 08:00:00 21,4 19,7 24 13 E 1020,8 10
13.10.2019 07:00:00 21,0 20,0 24 13 E - 10
13.10.2019 06:00:00 21,0 19,0 22 12 E - 10
13.10.2019 05:00:00 21,0 19,4 24 13 ESE 1020,8 10
13.10.2019 04:00:00 21,0 19,0 21 11 E - 10
13.10.2019 03:00:00 21,0 19,0 21 11 E - 10
13.10.2019 02:00:00 20,4 18,7 22 12 E 1021,7 10
13.10.2019 01:00:00 21,0 19,0 22 12 E - 10
13.10.2019 00:00:00 21,0 19,0 24 13 E - 10
12.10.2019 23:00:00 20,8 19,3 22 12 ENE 1021,7 10
12.10.2019 22:00:00 21,0 19,0 26 14 NE - 10
12.10.2019 21:00:00 21,0 19,0 26 14 NE - 10
12.10.2019 20:00:00 20,8 19,1 31 17 NE 1021,4 20
12.10.2019 19:00:00 21,0 20,0 37 20 NE - 10
12.10.2019 18:00:00 22,0 20,0 37 20 ENE - 10
12.10.2019 17:00:00 23,2 20,2 39 21 ENE 1021,1 20
12.10.2019 16:00:00 23,0 20,0 29 16 ENE - 10
12.10.2019 15:00:00 25,0 19,0 28 15 E - 10
12.10.2019 14:00:00 25,4 18,6 26 14 E 1021,8 20
12.10.2019 13:00:00 25,0 18,0 22 12 E - 10
12.10.2019 12:00:00 24,0 18,0 22 12 E - 10
12.10.2019 11:00:00 22,4 16,9 24 13 E 1022,5 20
12.10.2019 10:00:00 21,0 18,0 21 11 ENE - 10
12.10.2019 09:00:00 20,0 18,0 16 9 ENE - 10
12.10.2019 08:00:00 19,6 17,9 16 9 ENE 1021,7 20
12.10.2019 07:00:00 20,0 18,0 13 7 ENE - 10
12.10.2019 06:00:00 20,0 18,0 11 6 ENE - 10
12.10.2019 05:00:00 19,8 18,7 9 5 ENE 1021,9 20
12.10.2019 04:00:00 20,0 18,0 8 4 E - 10
12.10.2019 03:00:00 20,0 18,0 8 4 E - 10
12.10.2019 02:00:00 20,0 18,8 4 2 ENE 1022,3 20
12.10.2019 01:00:00 20,0 19,0 4 2 E - 10
12.10.2019 00:00:00 21,0 19,0 2 1 ESE - 10
11.10.2019 23:00:00 20,8 19,3 2 1 ESE 1022,3 20
11.10.2019 22:00:00 21,0 19,0 5 3 SSE - 10
11.10.2019 21:00:00 21,0 19,0 9 5 SE - 10
11.10.2019 20:00:00 21,2 19,3 11 6 SE 1021,6 20
11.10.2019 19:00:00 22,0 19,0 11 6 SE - 10
11.10.2019 18:00:00 25,0 20,0 15 8 ESE - 10
11.10.2019 17:00:00 25,4 18,8 15 8 ESE 1021,4 20
11.10.2019 16:00:00 26,0 19,0 15 8 ESE - 10
11.10.2019 15:00:00 24,0 18,0 15 8 E - 10
11.10.2019 14:00:00 23,8 17,8 16 9 E 1022,0 20
11.10.2019 13:00:00 23,0 18,0 21 11 ENE - 10
11.10.2019 12:00:00 22,0 17,0 22 12 ENE - 10
11.10.2019 11:00:00 21,6 15,9 28 15 ENE 1022,1 20
11.10.2019 10:00:00 21,0 15,0 24 13 ENE - 10
11.10.2019 09:00:00 20,0 15,0 18 10 NNE - 10
11.10.2019 08:00:00 19,0 13,0 15 8 N - 10
11.10.2019 07:00:00 19,0 12,0 13 7 N - 10
11.10.2019 06:00:00 - - - - - - -
11.10.2019 05:00:00 18,8 10,9 18 10 ONO 1018,1 20
11.10.2019 04:00:00 18,0 12,0 11 6 O - 10
11.10.2019 03:00:00 - - - - - - -
11.10.2019 02:00:00 19,0 13,0 44 24 ONO - 10
11.10.2019 01:00:00 - - - - - - -
11.10.2019 00:00:00 - - - - - - -
10.10.2019 23:00:00 19,0 12,0 52 28 O - 10
10.10.2019 22:00:00 20,0 13,0 44 24 O - 10
10.10.2019 21:00:00 - - - - - - -
10.10.2019 20:00:00 21,8 12,8 48 26 ONO 1016,5 20
10.10.2019 19:00:00 22,0 14,0 48 26 O - 10
10.10.2019 18:00:00 25,0 14,0 46 25 O - 10
10.10.2019 17:00:00 24,0 15,8 67 36 O 1015,0 20
10.10.2019 16:00:00 - - - - - - -
10.10.2019 15:00:00 25,0 17,0 63 34 O - 10
10.10.2019 14:00:00 25,0 17,0 52 28 O - 10
10.10.2019 13:00:00 24,0 18,0 48 26 O - 10
10.10.2019 12:00:00 - - - - - - -
10.10.2019 11:00:00 21,4 18,1 24 13 O 1017,4 20
10.10.2019 10:00:00 20,0 17,0 18 10 O - 10
10.10.2019 09:00:00 - - - - - - -
10.10.2019 08:00:00 19,0 14,6 13 7 NNE 1017,1 20
10.10.2019 07:00:00 19,0 16,0 8 4 O - 10
10.10.2019 06:00:00 19,0 16,0 5 3 O - 10
10.10.2019 05:00:00 19,4 16,0 5 3 OSO 1017,3 20
10.10.2019 04:00:00 20,0 14,0 5 3 NE - 10
10.10.2019 03:00:00 20,0 16,0 5 3 - - 10
10.10.2019 02:00:00 20,0 16,4 8 4 ONO 1017,4 20
10.10.2019 01:00:00 20,0 14,0 0 0 N - 10
10.10.2019 00:00:00 20,0 16,0 8 4 O - 10
09.10.2019 23:00:00 21,0 16,0 22 12 O 1017,6 20
09.10.2019 22:00:00 21,0 18,0 29 16 O - 10
09.10.2019 21:00:00 21,0 18,0 26 14 O - 10
09.10.2019 20:00:00 20,8 16,8 21 11 SO 1017,2 20
09.10.2019 19:00:00 21,0 16,0 13 7 S - 10
09.10.2019 18:00:00 - - - - - - -
09.10.2019 17:00:00 25,0 16,9 9 5 S 1016,9 20
09.10.2019 16:00:00 25,0 17,0 11 6 S - 10
09.10.2019 15:00:00 25,0 18,0 11 6 SSE - 10
09.10.2019 14:00:00 25,0 19,2 9 5 SSE 1018,0 20
09.10.2019 13:00:00 24,0 18,0 11 6 ESE - 10
09.10.2019 12:00:00 22,0 18,0 5 3 E - 10

tt = Temperatura
td = dewpoint
ff = velocità del vento
dd = direzione del vento
ppp = reduced air pressure
vv = visibility

Stazioni seguenti

WeatherPro
AMSI
MeteoEarth